RH
100 99 98 98 97 96 95 94 93 93 94 96 97 99 100 101 101 101 102 101 102 104 104 104 104 102 103 103 103 108 109 105 105 103 104 109 108 105 104 99 94 89 84 80 77 75 73 71 69 67 65 63
100 100 100 100 100 99 99 98 98 97 95 93 93 92 93 94 94 97 101 103 106 108 107 107 106 104 106 105 103 105 105 104 104 103 104 106 104 100 97 92 87 83 79 78 78 78 76 73 70 67 65 64
102 101 100 100 100 100 100 100 100 100 100 99 98 96 96 95 94 96 98 101 104 105 103 102 103 102 103 102 101 103 103 102 102 102 102 99 98 94 89 85 84 81 77 76 77 77 75 71 68 66 64 62
102 103 103 101 102 102 100 100 100 100 100 100 100 100 100 100 100 100 99 101 102 102 100 100 103 101 101 102 102 103 103 102 99 97 96 93 92 89 87 84 82 80 76 74 73 72 69 67 65 62 61 59
101 104 106 102 103 104 102 103 102 102 103 100 101 100 100 101 100 100 101 101 100 100 100 100 103 101 104 107 104 102 102 101 98 95 94 92 91 90 88 85 81 78 74 71 68 66 65 63 62 59 57 55
101 103 105 101 102 103 102 103 103 104 104 101 103 103 102 103 100 102 103 101 100 100 100 100 102 103 106 106 103 102 102 102 101 99 97 93 90 88 84 80 76 73 70 68 66 64 62 60 59 58 58 58
101 102 102 100 101 104 101 100 101 103 101 99 101 101 101 101 100 102 102 100 100 100 100 101 103 105 106 105 104 103 103 102 101 98 93 86 82 77 73 70 67 65 64 63 62 61 60 60 60 61 63 65
102 102 102 100 100 103 102 100 102 102 100 100 100 100 100 100 100 100 101 100 100 101 103 103 102 103 104 105 104 101 98 95 91 85 78 72 68 65 63 61 61 60 60 61 61 62 63 64 66 67 68 70
101 102 101 101 100 101 101 100 101 100 100 102 101 100 100 100 100 100 102 103 102 103 103 102 101 100 100 97 92 87 80 75 71 68 65 63 62 61 61 62 64 65 67 68 69 70 71 72 73 75 75 75
100 101 100 101 101 100 101 100 100 100 100 101 101 100 100 100 101 101 103 103 103 103 101 99 96 92 87 81 76 71 66 63 61 61 62 63 64 66 67 69 70 72 74 76 77 78 78 79 79 80 81 80
100 99 98 99 97 96 96 94 93 92 91 90 90 90 89 88 88 88 89 89 89 89 88 86 83 79 76 72 69 67 66 65 64 63 63 63 64 66 69 71 72 74 76 78 80 81 82 82 82 82 81 80
95 92 90 88 86 85 84 81 80 78 76 75 75 74 72 72 72 72 72 72 73 73 73 73 72 71 70 69 68 67 67 67 65 65 64 63 62 62 64 66 67 67 69 72 73 74 75 75 76 75 75 74
98 94 89 85 81 79 77 75 74 72 71 70 70 69 68 69 70 70 71 71 71 71 71 71 70 70 70 70 68 67 66 66 65 64 63 62 60 59 59 60 59 59 59 60 61 61 62 62 63 64 65 66
95 94 91 89 87 84 81 79 77 74 72 70 68 68 67 68 69 70 71 73 74 75 75 74 73 73 72 72 70 69 68 67 66 65 63 62 61 60 59 59 58 57 56 56 56 56 56 57 57 57 58 59
83 84 84 83 82 81 80 79 78 76 74 72 69 67 65 63 63 64 64 66 68 70 72 73 74 73 73 72 71 70 69 68 67 67 66 65 64 63 63 62 61 59 58 57 56 55 55 56 56 57 57 57
74 75 75 75 75 74 73 73 72 71 70 69 67 65 63 61 60 59 58 59 60 62 64 66 68 69 70 71 70 69 68 68 67 66 66 65 64 63 63 62 61 60 58 57 55 54 53 53 55 57 58 59
61 62 63 64 65 66 66 66 66 65 65 64 63 63 62 62 62 61 60 59 59 59 61 62 63 65 66 68 69 69 68 68 67 66 65 64 63 62 61 59 58 56 54 53 52 51 50 51 54 56 57 59
55 55 55 55 55 56 57 58 59 59 59 59 59 60 60 61 61 62 62 61 60 58 57 57 57 59 60 62 64 65 65 65 65 64 64 63 62 61 59 58 56 54 53 51 50 50 49 50 52 54 55 56
53 53 53 52 52 52 53 53 54 53 53 52 52 52 52 53 53 53 53 53 53 52 51 49 48 49 50 52 55 57 59 59 59 59 59 59 58 58 58 57 57 55 55 54 53 53 52 53 54 55 56 56
48 48 48 48 48 48 48 48 47 47 46 45 45 45 45 45 45 45 45 45 46 46 46 45 46 46 47 49 51 53 54 55 57 58 59 61 63 67 68 69 70 69 68 67 66 65 64 64 64 64 64 63
48 49 49 49 49 49 49 49 49 49 49 48 48 49 49 49 49 49 49 48 48 48 49 49 49 50 52 53 55 56 57 57 58 59 62 64 67 72 75 76 76 76 76 75 74 72 71 71 70 69 69 68
54 54 55 55 54 53 53 53 53 53 55 55 55 56 58 59 60 61 63 63 63 63 63 63 62 62 62 63 64 65 66 67 67 67 68 69 69 69 71 72 71 69 69 68 67 67 66 65 64 64 64 64
64 63 62 62 61 59 58 57 57 57 58 59 59 60 61 62 63 65 68 70 71 72 74 75 77 78 79 79 80 80 81 82 82 82 80 79 77 75 73 72 70 68 65 63 62 61 60 59 58 57 57 57
55 53 53 52 52 52 52 51 52 52 52 54 56 57 58 59 61 62 64 66 68 70 72 74 76 78 79 81 82 82 83 83 82 82 79 77 76 75 72 70 68 67 65 64 62 61 61 60 60 59 58 58
34 34 34 33 33 33 33 33 33 34 34 35 37 39 40 42 44 47 49 52 54 57 59 61 64 66 68 69 70 71 71 72 71 70 69 68 67 67 68 66 65 64 64 65 65 64 64 65 65 64 64 63
22 22 22 23 23 23 23 23 22 22 22 22 23 23 24 25 26 27 29 31 33 35 37 39 41 44 46 48 50 52 54 56 57 58 59 60 60 61 62 63 62 61 61 62 63 63 63 63 63 63 63 62
18 18 17 17 17 17 17 17 17 17 17 17 17 17 17 18 18 18 19 20 21 23 24 25 26 27 28 30 31 32 33 34 36 38 39 41 42 43 44 46 47 47 47 48 48 49 49 49 49 49 49 49
22 22 21 21 20 20 19 19 19 18 17 17 17 17 16 16 16 15 15 16 16 17 18 18 19 20 21 22 22 23 24 24 25 26 27 28 28 29 30 31 31 31 31 31 31 31 32 32 33 34 34 34
19 19 19 19 19 19 19 19 19 19 19 19 19 19 19 19 19 19 18 18 18 18 18 17 17 17 17 18 18 18 18 19 19 20 21 22 23 24 26 26 27 27 26 27 26 26 27 28 30 33 32 33
11 11 11 11 11 11 11 11 11 12 12 13 13 14 14 15 16 17 18 18 19 20 20 21 21 21 21 20 20 19 18 18 17 17 17 17 18 19 20 20 22 23 22 23 23 23 24 25 27 29 29 32
8 8 8 7 7 7 7 7 7 7 7 7 7 8 8 8 9 10 10 11 13 14 16 18 19 21 22 23 23 23 22 22 21 20 20 19 19 18 18 18 19 20 20 20 19 18 19 19 20 22 23 25
Wind_Speed
77 78 78 79 79 80 80 81 81 82 82 83 83 84 85 85 86 87 88 89 90 91 91 92 92 92 92 92 93 93 93 93 92 92 91 90 90 89 88 88 88 88 88 88 88 88 88 88 87 87 87 87
82 83 83 83 83 83 83 84 84 85 85 86 87 88 89 90 92 92 93 93 94 94 94 94 95 95 95 95 95 95 95 95 94 93 93 92 91 91 91 91 91 91 91 91 91 91 90 90 90 90 89 89
87 88 88 88 88 88 88 88 88 88 88 89 89 89 91 92 94 95 95 95 96 96 96 96 96 96 96 96 96 95 95 95 94 94 94 93 94 94 94 95 94 94 94 93 93 93 93 93 93 92 92 91
90 90 91 91 92 92 93 93 93 93 94 94 94 94 94 95 95 96 96 96 97 97 97 97 97 97 97 97 96 96 96 96 96 96 96 97 97 98 98 98 98 97 97 96 96 95 95 95 95 95 94 94
91 92 92 93 93 94 95 96 97 98 98 99 98 98 98 98 98 98 98 98 98 98 99 99 99 99 98 98 98 98 99 99 100 100 100 100 100 101 101 100 100 100 99 99 98 98 97 97 97 97 96 96
94 95 95 96 96 97 97 99 100 101 101 101 101 101 101 101 101 101 101 100 100 100 100 100 101 101 101 101 102 102 102 103 103 103 103 103 103 103 103 103 102 102 101 101 100 100 99 99 98 98 98 98
97 99 99 99 100 100 101 101 102 103 103 103 103 103 103 103 103 103 103 103 103 103 103 103 103 104 104 105 105 105 105 106 106 106 106 106 106 106 106 105 105 104 103 103 103 102 102 101 101 100 100 100
101 102 102 103 103 104 104 105 105 106 106 105 105 105 105 105 105 105 105 105 106 106 107 107 107 107 108 108 109 109 109 109 109 109 109 109 108 108 108 107 107 106 106 106 105 105 105 104 104 103 103 102
103 104 105 106 106 107 107 108 108 109 109 109 108 108 107 107 107 107 108 108 109 110 110 110 111 111 111 111 112 112 112 111 111 111 111 111 111 110 110 110 109 109 109 108 108 108 108 107 107 106 105 105
106 107 107 108 108 109 109 110 110 110 111 111 111 110 110 110 110 110 110 111 112 113 113 113 113 113 113 113 113 114 114 114 114 114 114 114 114 114 113 113 113 112 112 111 111 111 110 110 109 108 107 106
108 109 109 109 110 110 111 111 112 112 112 113 113 112 112 112 112 113 113 114 114 115 115 115 116 116 116 116 116 116 116 117 117 117 117 117 117 116 116 115 115 114 114 113 113 113 112 112 111 110 109 109
111 111 111 112 112 113 113 113 114 114 114 115 115 115 115 115 115 115 116 116 116 117 117 118 118 119 118 118 118 118 119 119 119 119 119 119 118 117 117 117 117 116 116 115 115 115 115 114 114 113 112 112
113 114 114 115 115 115 116 116 117 117 118 118 118 118 118 118 118 119 119 119 120 120 120 121 121 121 121 121 121 121 121 121 121 121 121 121 121 120 119 119 119 119 119 119 118 118 118 117 117 116 116 115
116 117 118 118 118 119 119 120 120 121 122 122 122 122 123 123 123 123 123 123 123 124 124 124 124 124 124 125 125 125 125 125 124 125 124 124 124 124 123 123 123 123 123 122 122 122 121 121 120 119 119 118
120 121 122 122 123 123 123 124 124 125 126 126 126 127 127 128 128 128 128 128 128 128 128 128 128 128 128 129 129 129 129 129 129 128 128 128 127 127 127 126 126 126 126 126 126 125 124 124 123 123 122 121
125 126 126 127 127 128 128 128 129 129 130 130 131 131 132 132 132 132 132 132 132 132 133 133 133 132 132 133 133 133 133 133 133 132 132 132 131 131 130 130 130 130 129 129 129 128 127 127 126 126 125 124
128 129 129 130 130 131 131 132 132 133 133 134 134 135 135 135 135 136 136 136 136 136 136 136 136 136 136 136 137 137 137 137 136 136 135 135 135 134 134 134 133 133 132 131 131 131 130 129 128 128 127 127
131 131 132 132 133 133 134 134 135 136 136 137 137 138 138 138 139 139 139 139 139 139 139 139 139 139 139 139 140 140 140 140 139 139 139 138 137 137 136 136 136 135 134 134 133 132 132 131 131 130 130 130
133 134 134 135 135 136 136 137 137 138 139 139 140 140 140 141 141 141 141 141 141 141 141 141 140 140 140 141 141 142 142 142 141 141 141 140 139 139 138 138 138 137 137 136 135 135 135 134 134 134 134 134
134 135 136 136 137 137 137 138 138 139 140 140 140 141 141 142 142 142 142 142 142 143 142 142 142 141 141 141 141 142 142 142 142 142 141 141 141 141 141 141 140 140 140 140 139 139 139 138 138 138 138 138
138 139 139 140 140 141 141 141 142 142 143 143 143 144 144 144 144 145 145 145 145 145 145 144 144 144 144 144 144 144 144 144 144 144 144 145 145 145 145 145 145 145 145 145 145 144 144 144 143 143 143 143
143 144 145 145 146 146 146 146 147 147 148 148 148 149 149 149 150 150 150 150 150 150 150 150 150 149 149 149 149 149 150 150 150 150 150 150 151 151 151 151 152 152 151 151 150 150 149 149 148 148 148 148
148 149 150 150 151 151 151 152 152 152 153 153 154 154 154 154 155 155 155 155 156 156 156 156 156 156 156 156 156 156 156 156 157 157 157 157 157 158 157 157 157 157 157 156 155 154 154 154 153 153 152 152
150 151 151 152 153 153 154 155 155 155 156 156 157 158 158 159 159 159 160 160 160 161 161 161 161 161 161 162 162 162 162 162 162 162 162 162 162 162 162 162 161 161 160 160 159 158 158 157 157 156 156 155
147 148 149 150 150 151 152 153 154 154 155 156 157 158 159 159 160 161 161 162 163 164 164 164 165 165 166 166 166 166 166 166 166 166 166 166 165 165 165 165 165 164 164 163 162 161 161 160 160 160 159 159
142 143 144 145 146 147 148 149 150 150 151 152 153 154 155 156 156 157 158 159 161 162 163 163 164 165 166 167 168 168 169 169 169 169 169 169 169 169 168 168 169 168 167 166 165 165 164 163 163 163 162 162
137 138 139 140 141 142 143 144 145 146 147 148 149 149 150 151 152 152 153 154 155 156 158 159 160 161 162 164 165 165 166 166 167 167 168 168 168 168 168 168 169 169 169 168 167 166 165 164 164 164 163 162
135 137 138 139 139 140 141 142 143 144 145 145 146 147 148 148 149 149 150 150 151 152 153 153 154 156 157 158 159 160 161 161 162 162 163 164 164 164 164 165 165 166 166 166 165 164 162 162 161 161 161 160
133 134 135 136 137 139 140 141 141 142 143 144 145 145 146 147 148 148 148 149 149 150 150 151 151 152 153 154 155 156 156 156 157 157 158 158 159 159 159 159 160 161 162 162 162 161 160 159 158 157 158 157
128 129 130 132 133 134 135 136 137 138 139 140 142 143 144 145 146 146 147 148 148 149 149 150 151 152 152 153 154 154 154 154 154 155 155 155 155 155 155 155 155 155 157 157 157 157 156 155 154 153 154 153
123 125 126 127 129 130 131 132 133 134 135 135 136 138 139 140 142 143 143 144 146 147 148 149 150 151 152 153 154 154 154 154 154 154 154 154 154 154 154 153 153 153 153 154 154 154 153 152 151 150 149 149
Wind_Direction
252 253 254 254 254 254 254 253 253 252 251 250 250 249 250 250 250 251 251 253 254 255 256 257 257 257 258 258 258 259 259 260 260 260 261 260 261 261 262 262 262 263 264 264 264 264 265 265 265 265 265 265
250 250 251 252 253 254 254 254 253 253 252 252 251 251 251 251 252 252 253 254 255 256 256 257 258 258 258 258 259 259 259 259 259 260 260 260 261 262 262 263 263 263 263 264 264 264 264 264 264 264 265 265
251 251 251 251 251 252 252 253 252 252 252 252 251 251 252 252 252 253 253 254 255 256 256 257 257 258 258 258 259 259 259 259 260 260 261 261 262 262 263 263 263 263 263 263 263 263 264 264 264 264 264 264
253 253 253 253 253 252 253 253 253 253 252 252 252 252 252 252 253 253 253 254 254 255 256 257 257 257 258 258 259 259 260 261 261 262 262 262 262 262 263 263 263 263 263 263 262 263 263 263 263 264 264 264
255 255 255 254 254 254 254 254 254 254 253 253 253 253 253 254 254 254 254 254 255 255 256 257 257 258 258 259 260 260 261 262 262 262 262 262 262 262 262 262 262 262 262 262 262 262 262 262 263 263 263 263
255 255 255 255 255 254 254 255 255 255 255 255 255 255 255 255 256 256 256 256 256 256 256 257 258 258 259 260 260 260 261 261 261 261 261 261 261 261 261 261 261 261 262 262 262 262 262 262 262 262 263 263
256 256 256 256 255 255 255 255 256 256 256 256 256 256 256 256 256 257 257 257 257 257 258 258 258 259 259 260 260 260 260 260 260 260 260 260 260 260 261 261 261 261 261 261 262 262 262 262 262 262 262 262
258 258 258 258 258 257 257 257 257 258 258 258 258 257 257 257 257 258 258 258 258 259 259 259 259 259 259 259 259 259 259 259 259 260 260 260 260 260 260 261 261 261 261 261 261 262 262 262 262 262 262 262
259 259 259 259 259 259 259 259 259 259 259 259 259 259 259 258 259 259 259 259 259 260 260 260 259 259 260 260 260 260 260 260 260 260 260 260 260 260 260 260 261 261 261 261 261 261 262 262 262 262 262 263
258 259 259 259 259 260 260 260 260 260 260 260 260 260 260 260 260 260 260 260 260 260 260 260 260 260 260 260 260 260 260 260 260 260 260 260 260 260 261 261 261 261 261 261 261 261 261 262 262 262 262 262
260 260 260 260 260 261 261 261 261 261 261 261 261 261 261 261 260 260 260 260 261 261 261 261 261 261 260 260 260 260 261 261 261 261 261 261 261 261 261 261 261 261 262 262 262 262 262 261 262 262 262 262
263 262 262 261 261 261 262 262 262 262 262 262 262 262 262 262 261 261 261 261 261 261 261 261 261 261 261 261 261 261 261 261 261 261 261 261 261 261 261 262 262 262 262 262 262 262 261 261 261 261 261 261
265 264 264 263 263 263 263 263 263 263 263 263 263 263 263 262 262 262 262 262 262 262 261 261 262 262 262 262 262 261 261 261 261 261 262 262 262 262 262 262 262 262 262 262 262 262 262 261 261 261 261 261
264 265 265 265 265 264 264 264 264 264 264 264 264 264 264 263 263 263 263 262 262 262 262 262 262 262 262 262 262 262 262 261 261 261 262 262 262 262 262 262 262 262 262 262 262 262 262 262 261 261 261 261
264 264 264 265 265 265 265 265 265 265 265 265 265 265 264 264 264 264 263 263 263 263 263 263 262 262 262 262 262 262 262 262 262 262 262 262 262 262 262 262 262 262 262 262 262 262 262 262 262 261 261 261
263 264 264 264 265 265 265 265 265 265 266 265 265 265 265 265 264 264 264 264 263 263 263 263 263 263 263 263 263 263 263 263 263 263 263 263 263 263 262 262 262 263 263 263 263 263 262 262 261 261 261 261
264 264 264 264 264 265 265 265 265 265 265 265 265 265 265 265 265 265 264 264 264 263 263 263 263 263 263 263 263 263 263 263 263 263 263 263 263 263 263 263 263 263 263 263 263 262 262 262 261 261 261 261
265 264 264 264 264 264 264 265 265 265 265 265 265 265 265 265 265 265 265 265 264 264 263 263 263 263 263 263 263 263 263 263 263 263 263 263 263 262 262 262 262 262 262 262 262 262 262 261 261 261 261 261
266 265 265 265 264 264 264 264 264 264 265 265 265 265 265 265 264 264 264 264 264 264 264 263 263 263 263 263 263 263 263 263 263 262 262 262 262 262 262 262 262 262 262 262 261 261 261 261 262 262 262 262
266 266 266 265 265 265 264 264 264 264 264 264 264 264 264 264 264 264 264 264 263 263 263 263 263 263 263 262 262 262 262 262 262 262 262 262 262 262 262 262 262 262 262 262 262 262 262 262 262 262 262 262
267 267 267 266 266 266 265 265 264 264 264 264 264 264 264 264 264 264 264 264 264 263 263 263 263 263 263 263 262 262 262 262 262 262 262 262 262 262 262 262 262 262 262 262 263 263 263 263 263 263 263 263
269 268 268 268 268 267 267 266 266 265 265 265 265 264 264 264 264 264 264 264 264 264 264 263 263 263 263 263 263 263 262 262 262 262 262 262 263 263 263 263 263 263 263 263 263 263 263 263 263 263 263 263
270 270 269 269 269 268 268 267 267 266 266 266 266 265 265 265 265 264 264 264 264 264 264 264 263 263 263 263 263 263 263 263 263 263 263 263 263 263 263 263 263 263 263 263 263 263 263 263 263 263 263 263
270 270 270 269 269 268 268 268 267 267 266 266 266 266 265 265 265 264 264 264 264 264 263 263 263 263 263 263 263 263 263 263 263 263 263 263 263 263 263 263 263 263 263 263 263 263 263 263 263 263 263 263
271 270 270 270 269 269 268 268 267 267 266 266 266 265 265 265 264 264 264 264 264 263 263 263 263 263 263 263 262 262 262 262 262 262 262 262 262 263 263 263 263 263 263 263 263 263 263 263 263 263 263 263
271 270 270 270 270 269 269 269 268 268 267 267 266 266 265 265 264 264 264 263 263 263 263 263 263 262 262 262 262 262 262 262 262 262 262 262 262 262 262 262 262 262 262 262 262 262 262 262 262 262 263 263
271 270 270 270 269 269 269 268 268 268 267 267 267 266 266 266 265 265 264 264 263 263 263 262 262 262 262 262 262 262 261 261 261 261 261 261 261 261 261 261 261 262 262 261 261 261 261 261 262 262 262 262
272 271 271 270 270 269 269 269 268 268 267 267 267 266 266 266 265 265 264 264 264 263 263 263 262 262 262 262 261 261 261 261 261 261 260 261 261 261 261 261 261 261 261 261 261 260 260 260 260 261 261 261
272 272 272 271 271 270 270 269 269 268 268 267 267 266 266 265 265 265 264 264 263 263 263 263 263 262 262 262 261 261 261 261 260 260 260 260 260 260 260 260 260 260 260 260 260 260 260 260 259 260 260 260
274 274 273 273 272 272 271 270 270 269 269 268 268 267 267 266 265 265 264 264 263 263 262 262 262 262 261 261 261 261 261 261 260 260 260 259 259 259 259 259 259 259 260 259 259 259 259 259 259 259 259 259
275 275 275 274 274 273 273 272 271 271 270 270 269 268 268 267 266 266 265 264 263 263 262 261 261 261 261 260 260 260 260 260 260 260 260 259 259 259 259 258 258 258 259 259 259 259 258 258 258 258 258 258